Location: DARK SKY Beskydy - Park tmavé oblohy, www.darkskybeskydy.cz
(49.4926°N, 18.5016°E)
Time: 10:49:15
(UTC+01:00)

Vanguard 2 - Visible Passes

Search period start: 22 February 2024 00:00
Search period end: 03 March 2024 00:00
Orbit: 553 x 2919 km, 32.9° (Epoch: 21 February)

Date Brightness Start Highest point End Pass type
(mag) Time Alt. Az. Time Alt. Az. Time Alt. Az.
22 Feb 11.0 18:00:02 10° SSE 18:06:09 16° SE 18:13:28 10° ESE visible
22 Feb 10.5 20:03:01 10° SW 20:13:59 34° SSE 20:15:31 34° SSE visible
22 Feb 10.9 22:10:13 10° WSW 22:16:43 30° SW 22:16:43 30° SW visible
23 Feb 10.8 18:13:12 10° S 18:20:31 20° SE 18:28:39 12° ESE visible
23 Feb 10.4 20:17:33 10° SW 20:28:43 37° SSE 20:29:51 37° SSE visible
23 Feb 10.9 22:25:11 10° WSW 22:31:03 28° SW 22:31:03 28° SW visible
24 Feb 10.6 18:26:56 10° SSW 18:35:00 24° SE 18:42:57 15° ESE visible
24 Feb 10.4 20:32:13 10° SW 20:43:31 39° SSE 20:44:08 39° SSE visible
24 Feb 11.0 22:40:14 10° WSW 22:45:20 25° WSW 22:45:20 25° WSW visible
25 Feb 10.5 18:41:03 10° SSW 18:49:33 27° SSE 18:57:11 17° ESE visible
25 Feb 10.3 20:47:00 10° SW 20:58:21 40° S 20:58:23 40° S visible
25 Feb 11.1 22:55:21 10° WSW 22:59:34 22° WSW 22:59:34 22° WSW visible
26 Feb 10.4 18:55:24 10° SSW 19:04:11 30° SSE 19:11:23 20° ESE visible
26 Feb 10.3 21:01:52 10° WSW 21:12:34 40° S 21:12:34 40° S visible
26 Feb 11.2 23:10:34 10° WSW 23:13:46 19° WSW 23:13:46 19° WSW visible
27 Feb 10.3 19:09:55 10° SW 19:18:53 33° SSE 19:25:33 23° ESE visible
27 Feb 10.4 21:16:49 10° WSW 21:26:44 39° SSW 21:26:44 39° SSW visible
27 Feb 11.4 23:25:56 10° WSW 23:27:55 15° WSW 23:27:55 15° WSW visible
28 Feb 10.3 19:24:35 10° SW 19:33:38 35° SSE 19:39:42 26° SE visible
28 Feb 10.5 21:31:51 10° WSW 21:40:53 36° SSW 21:40:53 36° SSW visible
28 Feb 11.5 23:41:29 10° WSW 23:42:03 11° WSW 23:42:03 11° WSW visible
29 Feb 10.2 19:39:22 10° SW 19:48:28 36° S 19:53:49 28° SE visible
29 Feb 10.6 21:46:58 10° WSW 21:55:00 32° SSW 21:55:00 32° SSW visible
01 Mar 10.3 17:48:23 10° SSW 17:55:03 25° SSE 18:04:29 10° ESE visible
01 Mar 10.2 19:54:14 10° WSW 20:03:19 36° S 20:07:56 29° SE visible
01 Mar 10.7 22:02:13 10° WSW 22:09:07 28° SW 22:09:07 28° SW visible
02 Mar 10.2 18:02:53 10° SW 18:09:44 28° SSE 18:19:40 10° ESE visible
02 Mar 10.3 20:09:11 10° WSW 20:18:12 35° S 20:22:03 30° SSE visible
02 Mar 10.9 22:17:36 10° WSW 22:23:14 23° SW 22:23:14 23° SW visible
